EW7108 Weather Reports


Display with metric or nautical units.
time (UTC)temp
F
wind
direction
speed
MPH
gust
MPH
rain 1hr
in
rain 24hr
in
rain mn
in
humidity
%
barometer
mb
20181018075528 53 293 0.0 1.0 0.00 0.52 0.00 90 1027.0
20181018075028 53 23 0.0 1.0 0.00 0.52 0.00 90 1027.0
20181018074524 53 0 0.0 1.0 0.00 0.52 0.00 90 1027.3
20181018074020 53 315 0.0 0.0 0.00 0.52 0.00 90 1027.3
20181018073517 53 45 0.0 0.0 0.00 0.52 0.00 90 1027.3
20181018073014 53 23 0.0 0.0 0.00 0.52 0.00 91 1027.3
20181018072509 53 23 0.0 0.0 0.00 0.52 0.00 91 1027.3
20181018072004 53 0 0.0 0.0 0.00 0.52 0.00 91 1027.3
20181018071459 53 270 0.0 0.0 0.00 0.52 0.00 91 1027.3
20181018070957 53 293 0.0 0.0 0.00 0.52 0.00 91 1027.6
20181018070454 53 315 0.0 0.0 0.00 0.52 0.00 91 1027.6
20181018065950 53 338 0.0 0.0 0.00 0.52 0.00 91 1027.6
20181018065447 53 0 0.0 0.0 0.00 0.52 0.00 91 1027.3
20181018064942 53 338 0.0 0.0 0.00 0.52 0.00 91 1027.3
20181018064439 53 338 0.0 0.0 0.00 0.52 0.00 91 1027.3
20181018063938 53 338 0.0 1.0 0.00 0.52 0.00 91 1027.3
20181018063429 53 45 0.0 1.0 0.00 0.52 0.00 91 1027.3
20181018062928 53 270 0.0 0.0 0.00 0.52 0.00 91 1027.3
20181018062424 53 270 0.0 0.0 0.00 0.52 0.00 91 1027.6
20181018061920 53 315 0.0 0.0 0.00 0.52 0.00 91 1027.3
20181018061416 53 270 0.0 1.0 0.00 0.52 0.00 91 1027.6
20181018060911 53 338 0.0 1.0 0.00 0.52 0.00 91 1027.6
20181018060408 53 315 0.0 0.0 0.00 0.52 0.00 91 1027.6
20181018055904 53 293 0.0 0.0 0.00 0.52 0.00 91 1027.6
20181018055358 53 293 0.0 1.0 0.00 0.52 0.00 91 1027.6
20181018054852 53 315 0.0 1.0 0.00 0.52 0.00 91 1027.6
20181018054352 53 45 0.0 1.0 0.00 0.52 0.00 91 1027.3
20181018053847 53 293 0.0 0.0 0.00 0.52 0.00 91 1027.6
20181018053345 52 270 0.0 0.0 0.00 0.52 0.00 91 1027.6
20181018052841 52 293 0.0 0.0 0.00 0.52 0.00 91 1027.6
20181018052336 52 248 0.0 0.0 0.00 0.52 0.00 91 1027.6
20181018051832 52 270 0.0 0.0 0.00 0.52 0.00 91 1028.0
20181018051329 52 338 0.0 0.0 0.00 0.52 0.00 91 1028.0
20181018050822 52 293 0.0 0.0 0.00 0.52 0.00 91 1027.6
20181018050317 52 270 0.0 0.0 0.00 0.52 0.00 91 1028.0
20181018045816 52 270 0.0 0.0 0.00 0.52 0.52 91 1028.0
20181018045312 52 225 0.0 0.0 0.00 0.52 0.52 91 1028.0
20181018044808 52 270 0.0 0.0 0.00 0.52 0.52 91 1028.0
20181018044304 52 270 0.0 0.0 0.00 0.52 0.52 91 1028.0
20181018043800 52 270 0.0 0.0 0.00 0.52 0.52 91 1028.3
20181018043256 52 293 0.0 0.0 0.00 0.52 0.52 91 1028.0
20181018042758 52 270 0.0 0.0 0.00 0.52 0.52 91 1028.3
20181018042254 52 270 0.0 0.0 0.00 0.52 0.52 91 1028.3
20181018041750 52 293 0.0 0.0 0.00 0.52 0.52 91 1028.3
20181018041246 52 68 0.0 0.0 0.00 0.52 0.52 91 1028.3
20181018040742 52 270 0.0 1.0 0.00 0.52 0.52 91 1028.0
20181018040239 51 23 0.0 1.0 0.00 0.52 0.52 91 1028.0
20181018035734 51 338 0.0 0.0 0.00 0.52 0.52 91 1028.0
20181018035228 51 225 0.0 0.0 0.00 0.52 0.52 90 1028.3
20181018034728 51 248 0.0 0.0 0.00 0.52 0.52 90 1028.0
20181018034224 51 248 0.0 0.0 0.00 0.52 0.52 90 1028.0
20181018033721 51 225 0.0 0.0 0.00 0.52 0.52 90 1028.0
20181018033217 51 203 0.0 0.0 0.00 0.52 0.52 90 1028.3
20181018032714 51 225 0.0 0.0 0.00 0.52 0.52 90 1028.0
20181018032209 51 293 0.0 1.0 0.00 0.52 0.52 90 1028.0
20181018031704 51 23 0.0 1.0 0.00 0.52 0.52 90 1028.0
20181018031158 51 23 0.0 0.0 0.00 0.52 0.52 91 1028.0
20181018030658 51 23 0.0 1.0 0.00 0.52 0.52 91 1028.3
20181018030155 51 23 0.0 2.0 0.00 0.52 0.52 91 1028.0
20181018025650 51 293 0.0 2.0 0.01 0.52 0.52 91 1028.0
20181018025147 51 0 0.0 0.0 0.01 0.52 0.52 91 1028.0
20181018024643 51 23 0.0 2.0 0.01 0.52 0.52 91 1028.0
20181018024139 51 45 0.0 2.0 0.01 0.52 0.52 91 1028.0
20181018023634 51 0 0.0 2.0 0.02 0.52 0.52 91 1028.0
20181018023130 51 23 0.0 1.0 0.02 0.52 0.52 91 1028.0
20181018022629 51 23 0.0 2.0 0.02 0.52 0.52 91 1028.0
20181018022124 51 23 0.0 2.0 0.03 0.52 0.52 91 1028.0
20181018021622 50 0 0.0 2.0 0.03 0.52 0.52 91 1028.0
20181018021117 50 338 0.0 0.0 0.03 0.52 0.52 91 1028.3
20181018020613 50 315 0.0 0.0 0.04 0.52 0.52 91 1028.0
20181018020110 50 293 0.0 0.0 0.04 0.52 0.52 91 1028.0
20181018015605 50 293 0.0 0.0 0.04 0.51 0.51 91 1028.0
20181018015102 50 293 0.0 0.0 0.05 0.51 0.51 91 1028.0
20181018014558 50 270 0.0 0.0 0.06 0.51 0.51 91 1028.0
20181018014056 50 158 0.0 1.0 0.08 0.51 0.51 91 1028.0
20181018013551 50 23 0.0 1.0 0.09 0.50 0.50 90 1028.0
20181018013047 50 23 0.0 0.0 0.10 0.50 0.50 90 1027.6
20181018012543 49 23 0.0 1.0 0.11 0.50 0.50 90 1028.0
20181018012043 49 23 0.0 1.0 0.10 0.49 0.49 90 1027.6
20181018011534 49 23 0.0 0.0 0.10 0.49 0.49 90 1027.6
20181018011032 49 23 0.0 0.0 0.09 0.48 0.48 90 1027.6
20181018010528 49 270 0.0 0.0 0.10 0.48 0.48 90 1028.0
20181018010033 49 0 0.0 1.0 0.10 0.48 0.48 90 1027.6
20181018005520 50 293 0.0 1.0 0.10 0.47 0.47 88 1027.6
20181018005017 50 248 0.0 0.0 0.10 0.46 0.46 88 1027.6
20181018004512 50 315 0.0 1.0 0.09 0.45 0.45 88 1028.0
20181018004010 50 180 0.0 1.0 0.07 0.43 0.43 88 1027.6
20181018003504 50 203 0.0 0.0 0.06 0.41 0.41 88 1027.6
20181018002958 50 293 0.0 0.0 0.05 0.40 0.40 88 1027.6
20181018002457 50 293 0.0 0.0 0.04 0.39 0.39 88 1027.6
20181018001954 50 315 0.0 0.0 0.05 0.39 0.39 88 1027.6
20181018001448 50 248 0.0 0.0 0.05 0.39 0.39 88 1027.6
20181018000944 50 225 0.0 1.0 0.05 0.38 0.38 88 1028.0
20181018000440 50 203 0.0 1.0 0.05 0.38 0.38 88 1027.6
20181017235938 50 225 0.0 0.0 0.04 0.37 0.37 88 1027.6
20181017235433 50 248 0.0 0.0 0.04 0.37 0.37 88 1027.6
20181017234928 50 225 0.0 0.0 0.03 0.36 0.36 88 1027.6
20181017234422 50 270 0.0 0.0 0.03 0.36 0.36 88 1027.6
20181017233921 50 225 0.0 0.0 0.03 0.36 0.36 88 1027.6
20181017233416 50 248 0.0 0.0 0.02 0.35 0.35 88 1027.3
20181017232912 50 248 0.0 0.0 0.03 0.35 0.35 88 1027.6
20181017232409 51 225 0.0 0.0 0.03 0.34 0.34 88 1027.6
20181017231905 51 225 0.0 2.0 0.03 0.34 0.34 86 1028.0
20181017231401 51 203 0.0 2.0 0.04 0.34 0.34 86 1027.6
20181017230857 51 23 0.0 1.0 0.04 0.33 0.33 86 1028.0
20181017230353 51 45 0.0 0.0 0.04 0.33 0.33 86 1027.6
20181017225847 51 248 0.0 3.0 0.05 0.33 0.33 86 1027.6
20181017225345 51 0 0.0 3.0 0.06 0.33 0.33 86 1027.6
20181017224840 52 180 0.0 1.0 0.08 0.33 0.33 88 1027.6
20181017224336 52 23 0.0 0.0 0.10 0.33 0.33 88 1027.6
20181017223834 52 23 0.0 0.0 0.11 0.33 0.33 88 1027.6
20181017223329 52 293 0.0 0.0 0.12 0.33 0.33 88 1028.0
20181017222824 53 225 0.0 0.0 0.13 0.32 0.32 88 1028.0
20181017222321 53 270 0.0 1.0 0.13 0.31 0.31 88 1027.6
20181017221817 52 270 0.0 1.0 0.15 0.31 0.31 88 1028.0
20181017221315 53 293 0.0 0.0 0.16 0.30 0.30 88 1027.6
20181017220809 53 270 0.0 0.0 0.15 0.29 0.29 88 1027.6
20181017220305 53 270 0.0 0.0 0.16 0.29 0.29 88 1028.0
20181017215802 53 203 0.0 0.0 0.16 0.28 0.28 88 1028.3
20181017215256 53 203 0.0 0.0 0.14 0.26 0.26 88 1028.0
20181017214753 53 203 0.0 0.0 0.13 0.25 0.25 88 1028.0
20181017214242 53 203 0.0 0.0 0.12 0.23 0.23 88 1028.0
20181017213738 53 203 0.0 0.0 0.11 0.22 0.22 88 1028.0
20181017213234 53 203 0.0 1.0 0.10 0.21 0.21 86 1027.6
20181017212731 53 180 0.0 1.0 0.09 0.19 0.19 88 1027.6
20181017212228 53 270 0.0 2.0 0.08 0.17 0.17 88 1028.0
20181017211722 53 338 0.0 2.0 0.07 0.15 0.15 86 1027.6
20181017211216 53 338 0.0 0.0 0.06 0.14 0.14 88 1028.0
20181017210716 53 45 0.0 0.0 0.08 0.14 0.14 88 1027.6
20181017210212 53 225 0.0 0.0 0.07 0.13 0.13 88 1027.6
20181017205710 53 225 0.0 0.0 0.07 0.12 0.12 88 1027.6
20181017205205 53 293 0.0 0.0 0.08 0.12 0.12 88 1027.6
20181017204701 53 270 0.0 1.0 0.09 0.12 0.12 88 1027.6
20181017204157 53 338 0.0 2.0 0.08 0.11 0.11 88 1027.6
20181017203653 53 270 0.0 2.0 0.08 0.11 0.11 88 1027.6
20181017203146 53 225 0.0 1.0 0.08 0.10 0.11 88 1027.6
20181017202647 53 180 0.0 1.0 0.08 0.10 0.10 88 1027.3
20181017202143 53 90 0.0 1.0 0.07 0.09 0.09 88 1027.3
20181017201639 53 270 0.0 1.0 0.06 0.08 0.08 88 1027.0
20181017201134 53 203 0.0 1.0 0.05 0.07 0.07 88 1027.3
20181017200630 54 293 0.0 0.0 0.04 0.06 0.06 88 1027.0
20181017200127 54 270 0.0 0.0 0.04 0.05 0.05 86 1027.0
20181017195622 54 270 0.0 1.0 0.05 0.05 0.05 86 1027.3
20181017195115 54 225 0.0 1.0 0.04 0.04 0.04 86 1027.3
20181017194616 54 225 0.0 0.0 0.03 0.03 0.03 86 1027.3
20181017194112 54 225 0.0 0.0 0.03 0.03 0.03 86 1027.3
20181017193610 54 225 0.0 0.0 0.02 0.02 0.03 86 1027.0
20181017193105 54 315 0.0 1.0 0.02 0.02 0.02 85 1027.0
20181017192601 54 315 0.0 1.0 0.02 0.02 0.02 83 1027.3
20181017192058 54 315 0.0 1.0 0.02 0.02 0.02 85 1027.0
20181017191553 55 293 0.0 1.0 0.02 0.02 0.02 83 1027.0
20181017191046 55 338 0.0 1.0 0.02 0.02 0.02 83 1027.0
20181017190546 55 293 0.0 0.0 0.02 0.02 0.02 81 1027.0
20181017190041 55 270 0.0 0.0 0.01 0.01 0.01 81 1027.0
20181017185538 55 270 0.0 2.0 0.00 0.00 0.00 80 1026.6
20181017185033 55 0 1.0 3.0 0.00 0.00 0.00 78 1026.3
20181017184529 55 0 0.0 3.0 0.00 0.00 0.00 78 1026.3
20181017184025 55 0 1.0 3.0 0.00 0.00 0.00 76 1026.3
20181017183521 55 23 1.0 2.0 0.00 0.00 0.00 75 1026.6
20181017183016 56 23 1.0 2.0 0.00 0.00 0.00 75 1026.3
20181017182512 56 23 1.0 3.0 0.00 0.00 0.00 74 1026.3
20181017182010 56 23 1.0 3.0 0.00 0.00 0.00 73 1026.6
20181017181508 56 225 1.0 3.0 0.00 0.00 0.00 74 1026.6
20181017181005 56 90 1.0 4.0 0.00 0.00 0.00 73 1026.6
20181017180457 56 45 2.0 4.0 0.00 0.00 0.00 73 1026.6
20181017175953 56 45 1.0 4.0 0.00 0.00 0.00 74 1026.6
20181017175450 56 23 2.0 4.0 0.00 0.00 0.00 73 1026.6
20181017174945 56 23 2.0 4.0 0.00 0.00 0.00 71 1027.0
20181017174439 56 23 2.0 4.0 0.00 0.00 0.00 74 1027.0
20181017173935 56 90 0.0 2.0 0.00 0.00 0.00 75 1027.0
20181017173434 56 0 0.0 3.0 0.00 0.00 0.00 74 1027.3
20181017172928 56 23 2.0 4.0 0.00 0.00 0.00 75 1027.0
20181017172425 56 23 2.0 9.0 0.00 0.00 0.00 75 1027.0
20181017171923 56 45 2.0 9.0 0.00 0.00 0.00 73 1027.0
20181017171420 56 23 2.0 4.0 0.00 0.00 0.00 75 1027.0
20181017170920 56 248 1.0 4.0 0.00 0.00 0.00 75 1027.3
20181017170417 56 45 2.0 4.0 0.00 0.00 0.00 76 1027.3
20181017165913 56 23 0.0 3.0 0.00 0.00 0.00 76 1027.3
20181017165409 55 293 1.0 5.0 0.00 0.00 0.00 76 1027.3
20181017164905 55 293 2.0 5.0 0.00 0.00 0.00 75 1027.0
20181017164401 55 23 1.0 5.0 0.00 0.00 0.00 75 1027.0
20181017163858 55 23 1.0 4.0 0.00 0.00 0.00 75 1027.0
20181017163352 54 23 1.0 4.0 0.00 0.00 0.00 75 1027.0
20181017162850 54 293 2.0 5.0 0.00 0.00 0.00 75 1026.6
20181017162348 54 0 2.0 5.0 0.00 0.00 0.00 75 1027.0
20181017161844 55 338 1.0 5.0 0.00 0.00 0.00 76 1027.0
20181017161339 55 45 0.0 3.0 0.00 0.00 0.00 75 1027.0
20181017160835 54 23 1.0 3.0 0.00 0.00 0.00 75 1027.3
20181017160331 54 23 1.0 3.0 0.00 0.00 0.00 76 1027.0
20181017155828 54 23 1.0 3.0 0.00 0.00 0.00 75 1027.3
20181017155322 54 0 0.0 3.0 0.00 0.00 0.00 75 1027.3
20181017154821 54 23 1.0 4.0 0.00 0.00 0.00 75 1027.3
20181017154317 54 23 2.0 4.0 0.00 0.00 0.00 75 1027.0
20181017153812 54 248 1.0 6.0 0.00 0.00 0.00 75 1027.0
20181017153309 54 23 3.0 6.0 0.00 0.00 0.00 75 1026.6
20181017152806 54 45 3.0 6.0 0.00 0.00 0.00 74 1027.0
20181017152301 55 338 1.0 3.0 0.00 0.00 0.00 75 1027.0
20181017151757 54 293 1.0 5.0 0.00 0.00 0.00 74 1027.0
20181017151251 55 23 2.0 5.0 0.00 0.00 0.00 75 1026.6
20181017150752 55 45 2.0 5.0 0.00 0.00 0.00 75 1027.0
20181017150247 55 23 1.0 5.0 0.00 0.00 0.00 75 1026.6
20181017145743 54 45 2.0 7.0 0.00 0.00 0.00 75 1026.6
20181017145239 54 23 2.0 7.0 0.00 0.00 0.00 75 1026.6
20181017144736 54 338 0.0 5.0 0.00 0.00 0.00 76 1026.3
20181017144231 54 293 2.0 7.0 0.00 0.00 0.00 75 1026.3
20181017143728 54 23 4.0 7.0 0.00 0.00 0.00 75 1026.3
20181017142720 54 23 2.0 5.0 0.00 0.00 0.00 75 1026.3
20181017142217 54 0 2.0 6.0 0.00 0.00 0.00 76 1026.3
20181017141714 54 0 3.0 6.0 0.00 0.00 0.00 76 1025.9
20181017141209 53 315 2.0 4.0 0.00 0.00 0.00 76 1026.3
20181017140707 53 23 2.0 4.0 0.00 0.00 0.00 76 1026.3
20181017140203 53 0 2.0 4.0 0.00 0.00 0.00 76 1025.9
20181017135657 53 23 1.0 5.0 0.00 0.00 0.00 76 1025.6
20181017135151 53 23 2.0 6.0 0.00 0.00 0.00 76 1025.6
20181017134647 53 45 3.0 6.0 0.00 0.00 0.00 78 1025.6
20181017134131 53 45 2.0 5.0 0.00 0.00 0.00 78 1025.6
20181017133626 53 293 2.0 4.0 0.00 0.00 0.00 78 1025.6
20181017133121 53 23 2.0 5.0 0.00 0.00 0.00 78 1025.6
20181017132618 53 338 2.0 9.0 0.00 0.00 0.00 78 1025.6
20181017132114 53 338 4.0 9.0 0.00 0.00 0.00 76 1025.6
20181017131610 53 23 3.0 6.0 0.00 0.00 0.00 76 1025.6
20181017131103 53 315 3.0 5.0 0.00 0.00 0.00 78 1025.2
20181017130557 53 23 3.0 7.0 0.00 0.00 0.00 78 1025.6
20181017130059 53 113 3.0 7.0 0.00 0.00 0.00 78 1025.6
20181017125553 53 45 2.0 6.0 0.00 0.00 0.00 78 1025.6
20181017125051 53 293 3.0 6.0 0.00 0.00 0.00 78 1025.2
20181017124546 53 23 1.0 3.0 0.00 0.00 0.00 78 1025.2
20181017124043 53 23 2.0 3.0 0.00 0.00 0.00 78 1025.6
20181017123538 53 23 1.0 2.0 0.00 0.00 0.00 78 1025.6
20181017123033 53 23 1.0 4.0 0.00 0.00 0.00 78 1025.2
20181017122526 53 23 2.0 6.0 0.00 0.00 0.00 78 1025.2
20181017122027 53 23 2.0 6.0 0.00 0.00 0.00 76 1024.8
20181017121523 53 23 2.0 6.0 0.00 0.00 0.00 76 1024.8
20181017121018 53 23 2.0 6.0 0.00 0.00 0.00 76 1024.8
20181017120514 52 23 2.0 7.0 0.00 0.00 0.00 76 1024.8
20181017120011 52 0 3.0 7.0 0.00 0.00 0.00 76 1024.8
20181017115508 52 23 1.0 4.0 0.00 0.00 0.00 76 1024.8
20181017115007 52 23 2.0 5.0 0.00 0.00 0.00 76 1024.8
20181017114504 52 23 3.0 5.0 0.00 0.00 0.00 76 1024.5
20181017114001 52 270 2.0 4.0 0.00 0.00 0.00 76 1024.5
20181017113456 52 23 2.0 7.0 0.00 0.00 0.00 76 1024.5
20181017112953 52 23 2.0 7.0 0.00 0.00 0.00 78 1024.5
20181017112449 52 338 2.0 6.0 0.00 0.00 0.00 76 1024.5
20181017111945 52 23 3.0 6.0 0.00 0.00 0.00 76 1024.5
20181017111439 52 293 3.0 4.0 0.00 0.00 0.00 76 1024.2
20181017110939 52 23 3.0 5.0 0.00 0.00 0.00 76 1024.5
20181017110435 52 23 2.0 5.0 0.00 0.00 0.00 78 1024.5
20181017105931 52 23 3.0 4.0 0.00 0.00 0.00 78 1024.8
20181017105427 52 0 2.0 4.0 0.00 0.00 0.00 78 1024.5
20181017104923 52 0 2.0 4.0 0.00 0.00 0.00 76 1024.5
20181017104419 52 23 2.0 4.0 0.00 0.00 0.00 78 1024.5
20181017103914 52 0 1.0 5.0 0.00 0.00 0.00 78 1024.5
20181017103409 52 338 2.0 6.0 0.00 0.00 0.00 79 1024.5
20181017102908 52 23 1.0 6.0 0.00 0.00 0.00 79 1024.5
20181017102405 52 23 1.0 4.0 0.00 0.00 0.00 79 1024.5
20181017101902 52 338 2.0 5.0 0.00 0.00 0.00 78 1024.5
20181017101357 52 23 2.0 5.0 0.00 0.00 0.00 78 1024.5
20181017100853 52 45 3.0 5.0 0.00 0.00 0.00 79 1024.2
20181017100350 52 23 2.0 5.0 0.00 0.00 0.00 79 1024.2
20181017095844 52 23 2.0 5.0 0.00 0.00 0.00 79 1024.2
20181017095338 52 338 2.0 4.0 0.00 0.00 0.00 79 1024.2
20181017094838 52 23 1.0 6.0 0.00 0.00 0.00 79 1024.5
20181017094334 52 23 2.0 6.0 0.00 0.00 0.00 79 1024.2
20181017093832 52 293 1.0 4.0 0.00 0.00 0.00 80 1024.2
20181017093327 52 23 2.0 5.0 0.00 0.00 0.00 80 1024.2
20181017092825 52 0 1.0 5.0 0.00 0.00 0.00 80 1024.2
20181017092319 52 23 2.0 4.0 0.00 0.00 0.00 80 1024.2
20181017091815 52 270 2.0 4.0 0.00 0.00 0.00 80 1024.2
20181017091309 52 45 2.0 4.0 0.00 0.00 0.00 81 1023.8
20181017090801 0 0.0 0.0 0.00 0.00 0.00
20181017085025 52 23 2.0 4.0 0.00 0.42 0.00 81 1024.2
20181017084522 51 23 0.0 3.0 0.00 0.42 0.00 81 1024.2
20181017084018 51 315 1.0 5.0 0.00 0.42 0.00 81 1023.8
20181017083514 52 23 2.0 5.0 0.00 0.43 0.00 81 1023.5
20181017083015 52 45 3.0 4.0 0.00 0.43 0.00 81 1023.8
20181017082506 51 23 2.0 3.0 0.00 0.43 0.00 81 1023.8
20181017082002 51 338 1.0 3.0 0.00 0.43 0.00 83 1023.8
20181017081455 51 23 0.0 4.0 0.00 0.43 0.00 83 1023.8
20181017080954 51 23 2.0 4.0 0.00 0.43 0.00 83 1023.8
20181017080452 51 23 2.0 4.0 0.00 0.43 0.00 83 1023.8